EW0458 Weather Reports


time (UTC)temp
C
wind
direction
speed
KPH
gust
KPH
rain 1hr
cm
rain 24hr
cm
rain mn
cm
humidity
%
barometer
mb
20190420025206 9 292 0.0 0.0 0.00 0.00 0.00 74 1028.4
20190420024206 9 292 0.0 0.0 0.00 0.00 0.00 74 1028.3
20190420023206 9 292 0.0 0.0 0.00 0.00 0.00 74 1028.3
20190420022206 9 292 0.0 0.0 0.00 0.00 0.00 75 1028.3
20190420021206 9 292 0.0 0.0 0.00 0.00 0.00 75 1028.2
20190420020206 9 292 0.0 0.0 0.00 0.00 0.00 75 1028.2
20190420015206 9 292 0.0 1.6 0.00 0.00 0.00 75 1028.2
20190420014206 9 292 0.0 1.6 0.00 0.00 0.00 75 1028.1
20190420013206 9 292 0.0 0.0 0.00 0.00 0.00 74 1028.0
20190420012206 9 292 0.0 0.0 0.00 0.00 0.00 74 1027.9
20190420011207 10 292 0.0 0.0 0.00 0.00 0.00 73 1027.9
20190420010206 10 292 0.0 0.0 0.00 0.00 0.00 73 1027.9
20190420005207 10 292 0.0 0.0 0.00 0.00 0.00 73 1027.9
20190420004206 10 292 0.0 0.0 0.00 0.00 0.00 72 1027.9
20190420003206 10 292 0.0 0.0 0.00 0.00 0.00 71 1027.9
20190420002206 10 292 0.0 0.0 0.00 0.00 0.00 70 1027.9
20190420001205 10 292 0.0 0.0 0.00 0.00 0.00 68 1027.9
20190420000206 11 292 0.0 0.0 0.00 0.00 0.00 66 1027.9
20190419235206 11 292 0.0 0.0 0.00 0.00 0.00 65 1028.0
20190419234206 11 292 0.0 0.0 0.00 0.00 0.00 65 1028.0
20190419233206 12 292 0.0 0.0 0.00 0.00 0.00 63 1028.1
20190419232207 12 292 0.0 1.6 0.00 0.00 0.00 61 1028.1
20190419231206 12 292 0.0 0.0 0.00 0.00 0.00 62 1028.1
20190419230206 12 292 0.0 0.0 0.00 0.00 0.00 60 1028.2
20190419225207 13 292 0.0 0.0 0.00 0.00 0.00 58 1028.2
20190419224206 13 292 0.0 0.0 0.00 0.00 0.00 59 1028.2
20190419223206 13 292 0.0 0.0 0.00 0.00 0.00 58 1028.2
20190419222208 13 292 0.0 1.6 0.00 0.00 0.00 55 1028.3
20190419221205 13 292 0.0 1.6 0.00 0.00 0.00 56 1028.2
20190419220206 13 4 0.0 1.6 0.00 0.00 0.00 55 1028.2
20190419215206 13 3 0.0 0.0 0.00 0.00 0.00 54 1028.1
20190419214206 14 3 0.0 0.0 0.00 0.00 0.00 54 1028.1
20190419213206 14 3 0.0 1.6 0.00 0.00 0.00 53 1028.1
20190419212206 14 3 0.0 0.0 0.00 0.00 0.00 52 1028.0
20190419211205 14 3 0.0 0.0 0.00 0.00 0.00 52 1027.9
20190419210206 15 3 0.0 0.0 0.00 0.00 0.00 52 1027.9
20190419205209 15 3 0.0 1.6 0.00 0.00 0.00 50 1027.9
20190419204206 15 3 0.0 1.6 0.00 0.00 0.00 49 1027.9
20190419203206 15 262 0.0 0.0 0.00 0.00 0.00 52 1027.9
20190419202226 15 262 0.0 0.0 0.00 0.00 0.00 51 1027.9
20190419201206 16 262 0.0 0.0 0.00 0.00 0.00 50 1027.8
20190419200206 16 261 0.0 1.6 0.00 0.00 0.00 49 1027.8
20190419195205 16 262 0.0 1.6 0.00 0.00 0.00 48 1027.8
20190419194206 16 47 0.0 0.0 0.00 0.00 0.00 47 1027.7
20190419193206 17 47 0.0 0.0 0.00 0.00 0.00 46 1027.7
20190419192206 17 47 0.0 1.6 0.00 0.00 0.00 45 1027.6
20190419191206 18 45 0.0 3.2 0.00 0.00 0.00 42 1027.4
20190419190206 19 46 0.0 3.2 0.00 0.00 0.00 41 1027.4
20190419185206 20 84 0.0 6.4 0.00 0.00 0.00 41 1027.3
20190419184206 20 70 1.6 8.0 0.00 0.00 0.00 39 1027.3
20190419183206 20 91 1.6 8.0 0.00 0.00 0.00 39 1027.2
20190419182206 21 72 1.6 4.8 0.00 0.00 0.00 37 1027.0
20190419181206 21 40 1.6 8.0 0.00 0.00 0.00 36 1026.9
20190419180206 21 79 3.2 11.3 0.00 0.00 0.00 36 1026.8
20190419175206 22 74 3.2 8.0 0.00 0.00 0.00 35 1026.7
20190419174206 22 58 3.2 12.9 0.00 0.00 0.00 33 1026.6
20190419173206 22 44 4.8 12.9 0.00 0.00 0.00 32 1026.5
20190419172207 22 85 4.8 14.5 0.00 0.00 0.00 31 1026.5
20190419171206 23 62 4.8 14.5 0.00 0.00 0.00 31 1026.5
20190419170206 23 51 4.8 14.5 0.00 0.00 0.00 30 1026.4
20190419165207 23 75 3.2 14.5 0.00 0.00 0.00 29 1026.4
20190419164206 24 124 3.2 14.5 0.00 0.00 0.00 29 1026.4
20190419163206 24 85 1.6 9.7 0.00 0.00 0.00 28 1026.3
20190419162206 24 90 3.2 14.5 0.00 0.00 0.00 27 1026.3
20190419161206 24 86 4.8 16.1 0.00 0.00 0.00 27 1026.3
20190419160206 24 54 4.8 16.1 0.00 0.00 0.00 29 1026.3
20190419155206 24 351 3.2 12.9 0.00 0.00 0.00 29 1026.3
20190419154207 24 74 4.8 12.9 0.00 0.00 0.00 29 1026.3
20190419153206 24 55 4.8 12.9 0.00 0.00 0.00 29 1026.3
20190419152206 25 78 3.2 14.5 0.00 0.00 0.00 30 1026.4
20190419151206 24 69 6.4 16.1 0.00 0.00 0.00 30 1026.4
20190419150206 24 1 4.8 16.1 0.00 0.00 0.00 30 1026.5
20190419145206 24 67 4.8 16.1 0.00 0.00 0.00 30 1026.5
20190419144206 25 79 3.2 12.9 0.00 0.00 0.00 31 1026.6
20190419143206 25 53 3.2 12.9 0.00 0.00 0.00 30 1026.6
20190419142206 25 49 3.2 12.9 0.00 0.00 0.00 29 1026.7
20190419141206 25 156 3.2 12.9 0.00 0.00 0.00 31 1026.7
20190419140206 25 40 3.2 12.9 0.00 0.00 0.00 31 1026.7
20190419135206 24 53 6.4 12.9 0.00 0.00 0.00 30 1026.8
20190419134206 25 46 4.8 12.9 0.00 0.00 0.00 30 1026.8
20190419133207 25 102 4.8 14.5 0.00 0.00 0.00 31 1026.9
20190419132206 24 43 4.8 14.5 0.00 0.00 0.00 30 1026.9
20190419131206 24 39 4.8 19.3 0.00 0.00 0.00 30 1026.9
20190419130206 24 72 6.4 14.5 0.00 0.00 0.00 31 1027.0
20190419125206 24 1 6.4 16.1 0.00 0.00 0.00 31 1027.1
20190419124205 25 68 3.2 14.5 0.00 0.00 0.00 30 1027.1
20190419123206 24 133 4.8 12.9 0.00 0.00 0.00 32 1027.1
20190419122206 23 96 4.8 11.3 0.00 0.00 0.00 33 1027.1
20190419121205 23 111 4.8 14.5 0.00 0.00 0.00 32 1027.2
20190419120206 23 141 6.4 14.5 0.00 0.00 0.00 33 1027.2
20190419115205 23 62 4.8 16.1 0.00 0.00 0.00 31 1027.2
20190419114206 23 202 6.4 16.1 0.00 0.00 0.00 31 1027.2
20190419113206 23 46 4.8 17.7 0.00 0.00 0.00 31 1027.3
20190419112206 23 141 4.8 17.7 0.00 0.00 0.00 34 1027.4
20190419111205 23 93 4.8 11.3 0.00 0.00 0.00 34 1027.4
20190419110206 23 56 3.2 9.7 0.00 0.00 0.00 35 1027.4
20190419105206 22 83 3.2 11.3 0.00 0.00 0.00 36 1027.5
20190419104206 22 104 4.8 12.9 0.00 0.00 0.00 38 1027.6
20190419103206 22 60 3.2 6.4 0.00 0.00 0.00 38 1027.6
20190419102206 21 98 1.6 11.3 0.00 0.00 0.00 40 1027.7
20190419101208 21 68 3.2 11.3 0.00 0.00 0.00 40 1027.8
20190419100206 21 82 4.8 11.3 0.00 0.00 0.00 40 1027.9
20190419095206 21 112 3.2 8.0 0.00 0.00 0.00 40 1027.9
20190419094206 21 83 1.6 9.7 0.00 0.00 0.00 41 1027.9
20190419093206 20 105 4.8 11.3 0.00 0.00 0.00 44 1028.0
20190419092206 20 63 1.6 11.3 0.00 0.00 0.00 42 1028.0
20190419091206 20 85 1.6 9.7 0.00 0.00 0.00 45 1028.0
20190419090206 18 130 3.2 9.7 0.00 0.00 0.00 44 1028.1
20190419085206 18 47 3.2 11.3 0.00 0.00 0.00 45 1028.1
20190419084206 18 51 3.2 9.7 0.00 0.00 0.00 46 1028.2
20190419083206 17 81 3.2 9.7 0.00 0.00 0.00 47 1028.1
20190419082206 17 59 1.6 8.0 0.00 0.00 0.00 49 1028.1
20190419081206 16 119 1.6 9.7 0.00 0.00 0.00 50 1028.1
20190419080206 16 110 1.6 8.0 0.00 0.00 0.00 51 1028.1
20190419075206 15 77 1.6 8.0 0.00 0.00 0.00 51 1028.1
20190419074206 15 72 3.2 9.7 0.00 0.00 0.00 54 1028.0
20190419073206 14 58 1.6 6.4 0.00 0.00 0.00 55 1028.0
20190419072206 13 44 3.2 8.0 0.00 0.00 0.00 55 1027.9
20190419071206 13 51 1.6 6.4 0.00 0.00 0.00 55 1027.9
20190419070210 13 64 1.6 8.0 0.00 0.00 0.00 57 1027.9
20190419065206 12 68 3.2 8.0 0.00 0.00 0.00 58 1027.9
20190419064206 12 40 1.6 6.4 0.00 0.00 0.00 60 1027.9
20190419063206 12 60 1.6 6.4 0.00 0.00 0.00 61 1027.8
20190419062206 11 68 1.6 4.8 0.00 0.00 0.00 63 1027.7
20190419061206 11 52 0.0 4.8 0.00 0.00 0.00 64 1027.8
20190419060206 11 76 0.0 3.2 0.00 0.00 0.00 64 1027.7
20190419055206 10 70 0.0 1.6 0.00 0.00 0.00 65 1027.7
20190419054206 10 70 0.0 3.2 0.00 0.00 0.00 65 1027.7
20190419053206 10 94 0.0 1.6 0.00 0.00 0.00 64 1027.7
20190419052206 10 188 0.0 0.0 0.00 0.00 0.00 67 1027.6
20190419051206 9 188 0.0 0.0 0.00 0.00 0.00 71 1027.5
20190419050206 8 188 0.0 0.0 0.00 0.00 0.00 73 1027.4
20190419045207 7 188 0.0 0.0 0.00 0.00 0.00 74 1027.3
20190419044205 7 188 0.0 0.0 0.00 0.00 0.00 74 1027.2
20190419043207 7 188 0.0 0.0 0.00 0.00 0.00 74 1027.1
20190419042206 7 188 0.0 0.0 0.00 0.00 0.00 75 1027.0
20190419041206 7 188 0.0 0.0 0.00 0.00 0.00 74 1027.0
20190419040206 7 188 0.0 0.0 0.00 0.00 0.00 75 1027.0
20190419035205 7 188 0.0 0.0 0.00 0.00 0.00 74 1026.9
20190419034206 7 188 0.0 0.0 0.00 0.00 0.00 73 1026.9
20190419033206 7 188 0.0 0.0 0.00 0.00 0.00 73 1026.8
20190419032207 8 188 0.0 0.0 0.00 0.00 0.00 72 1026.8
20190419031206 8 188 0.0 0.0 0.00 0.00 0.00 72 1026.7
20190419030206 8 188 0.0 0.0 0.00 0.00 0.00 71 1026.6